When you browse on this site, cookies collect data to enhance your experience and personalize the content and advertising you see.
Visit our Privacy Policy to learn more. By continuing to use the site, you agree to this use of cookies and data.
  • In Österreich
  • Länderverzeichnis
  • Für 7 Tage
  • Wassertemperatur
  • Wetterkarte
  • News
  • Widgets
  • user-avatar
    Anmelden

    Stündliche Wetter Punta Gorda

    Heute, 28 Februar, Freitag

    Zeit Temperatur Niederschläge Wind Luftdruck Luftfeuchtigkeit
    00:00 +21°C° 0 mm 3 m/S 767 mmHg 84%
    01:00 +21°C° 0 mm 3 m/S 766 mmHg 84%
    02:00 +21°C° 0 mm 3 m/S 765 mmHg 85%
    03:00 +21°C° 0 mm 3 m/S 765 mmHg 85%
    04:00 +21°C° 0 mm 2 m/S 765 mmHg 85%
    05:00 +21°C° 0 mm 2 m/S 765 mmHg 84%
    06:00 +21°C° 0 mm 2 m/S 766 mmHg 81%
    07:00 +21°C° 0 mm 2 m/S 767 mmHg 79%
    08:00 +21°C° 0 mm 2 m/S 767 mmHg 77%
    09:00 +23°C° 0 mm 2 m/S 768 mmHg 76%
    10:00 +23°C° 0 mm 1 m/S 768 mmHg 72%
    11:00 +23°C° 0 mm 1 m/S 767 mmHg 69%
    12:00 +24°C° 0 mm 1 m/S 767 mmHg 65%
    13:00 +24°C° 0 mm 1 m/S 767 mmHg 66%
    14:00 +24°C° 0 mm 1 m/S 766 mmHg 67%
    15:00 +24°C° 0 mm 1 m/S 766 mmHg 68%
    16:00 +21°C° 0 mm 0 m/S 766 mmHg 70%
    17:00 +21°C° 0 mm 0 m/S 766 mmHg 73%
    18:00 +21°C° 0 mm 0 m/S 767 mmHg 75%
    19:00 +20°C° 0 mm 0 m/S 767 mmHg 75%
    20:00 +22°C° 0 mm 1 m/S 768 mmHg 76%
    21:00 +22°C° 0 mm 1 m/S 768 mmHg 76%
    22:00 +22°C° 0 mm 1 m/S 768 mmHg 77%
    23:00 +21°C° 0 mm 2 m/S 768 mmHg 78%

    Morgen, 29 Februar, Samstag

    Zeit Temperatur Niederschläge Wind Luftdruck Luftfeuchtigkeit
    00:00 +21°C° 0 mm 2 m/S 768 mmHg 79%
    01:00 +21°C° 0.1 mm 2 m/S 768 mmHg 79%
    02:00 +21°C° 0.1 mm 2 m/S 767 mmHg 79%
    03:00 +21°C° 0.1 mm 2 m/S 767 mmHg 79%
    04:00 +21°C° 0 mm 2 m/S 767 mmHg 80%
    05:00 +21°C° 0 mm 2 m/S 767 mmHg 80%
    06:00 +22°C° 0 mm 1 m/S 767 mmHg 81%
    07:00 +22°C° 0 mm 1 m/S 768 mmHg 79%
    08:00 +22°C° 0 mm 1 m/S 768 mmHg 77%
    09:00 +23°C° 0 mm 1 m/S 769 mmHg 75%
    10:00 +23°C° 0 mm 1 m/S 769 mmHg 73%
    11:00 +24°C° 0 mm 1 m/S 768 mmHg 71%
    12:00 +24°C° 0 mm 1 m/S 768 mmHg 68%
    13:00 +25°C° 0 mm 1 m/S 767 mmHg 66%
    14:00 +25°C° 0 mm 1 m/S 766 mmHg 65%
    15:00 +25°C° 0 mm 1 m/S 766 mmHg 63%
    16:00 +24°C° 0 mm 1 m/S 766 mmHg 67%
    17:00 +22°C° 0 mm 0 m/S 766 mmHg 71%
    18:00 +21°C° 0 mm 0 m/S 766 mmHg 75%
    19:00 +23°C° 0.1 mm 1 m/S 766 mmHg 76%
    20:00 +21°C° 0.1 mm 2 m/S 767 mmHg 77%
    21:00 +21°C° 0.1 mm 2 m/S 767 mmHg 79%
    22:00 +21°C° 0.7 mm 2 m/S 767 mmHg 83%
    23:00 +20°C° 0.7 mm 2 m/S 766 mmHg 87%

    übermorgen, 1 März, Sonntag

    Zeit Temperatur Niederschläge Wind Luftdruck Luftfeuchtigkeit
    00:00 +20°C° 0.7 mm 2 m/S 766 mmHg 91%
    01:00 +20°C° 0.7 mm 2 m/S 765 mmHg 91%
    02:00 +20°C° 0.7 mm 2 m/S 765 mmHg 92%
    03:00 +20°C° 0.7 mm 2 m/S 765 mmHg 92%
    04:00 +20°C° 0.7 mm 2 m/S 765 mmHg 92%
    05:00 +20°C° 0.7 mm 2 m/S 765 mmHg 91%
    06:00 +20°C° 0.7 mm 2 m/S 765 mmHg 90%
    07:00 +21°C° 0.3 mm 2 m/S 765 mmHg 87%
    08:00 +23°C° 0.3 mm 2 m/S 765 mmHg 84%
    09:00 +24°C° 0.3 mm 1 m/S 765 mmHg 81%
    10:00 +24°C° 0.2 mm 1 m/S 765 mmHg 82%
    11:00 +25°C° 0.2 mm 1 m/S 764 mmHg 83%
    12:00 +25°C° 0.2 mm 1 m/S 763 mmHg 84%
    13:00 +26°C° 0 mm 2 m/S 762 mmHg 76%
    14:00 +28°C° 0 mm 3 m/S 762 mmHg 67%
    15:00 +29°C° 0 mm 4 m/S 761 mmHg 58%
    16:00 +28°C° 0 mm 4 m/S 761 mmHg 64%
    17:00 +26°C° 0 mm 4 m/S 761 mmHg 71%
    18:00 +25°C° 0 mm 4 m/S 761 mmHg 77%
    19:00 +23°C° 0 mm 4 m/S 762 mmHg 83%
    20:00 +22°C° 0 mm 4 m/S 762 mmHg 88%
    21:00 +21°C° 0 mm 3 m/S 763 mmHg 93%
    22:00 +21°C° 0.1 mm 3 m/S 762 mmHg 92%
    23:00 +22°C° 0.1 mm 3 m/S 762 mmHg 92%

    2 März, Montag

    Zeit Temperatur Niederschläge Wind Luftdruck Luftfeuchtigkeit
    00:00 +23°C° 0.1 mm 2 m/S 762 mmHg 91%
    01:00 +23°C° 0.2 mm 2 m/S 761 mmHg 92%
    02:00 +23°C° 0.2 mm 2 m/S 761 mmHg 93%
    03:00 +23°C° 0.2 mm 1 m/S 760 mmHg 94%
    04:00 +23°C° 0.1 mm 1 m/S 760 mmHg 95%
    05:00 +23°C° 0.1 mm 1 m/S 760 mmHg 95%
    06:00 +23°C° 0.1 mm 1 m/S 760 mmHg 95%
    07:00 +24°C° 0 mm 1 m/S 761 mmHg 88%
    08:00 +26°C° 0 mm 1 m/S 761 mmHg 80%
    09:00 +27°C° 0 mm 1 m/S 761 mmHg 72%
    10:00 +29°C° 0 mm 2 m/S 760 mmHg 67%
    11:00 +30°C° 0 mm 2 m/S 759 mmHg 62%
    12:00 +31°C° 0 mm 3 m/S 759 mmHg 57%
    13:00 +32°C° 0 mm 4 m/S 758 mmHg 57%
    14:00 +32°C° 0 mm 4 m/S 757 mmHg 57%
    15:00 +32°C° 0 mm 5 m/S 756 mmHg 57%
    16:00 +29°C° 0 mm 5 m/S 756 mmHg 64%
    17:00 +28°C° 0 mm 5 m/S 756 mmHg 72%
    18:00 +26°C° 0 mm 5 m/S 756 mmHg 79%
    19:00 +26°C° 0 mm 4 m/S 757 mmHg 83%
    20:00 +25°C° 0 mm 4 m/S 757 mmHg 86%
    21:00 +25°C° 0 mm 3 m/S 758 mmHg 90%
    22:00 +25°C° 0 mm 3 m/S 758 mmHg 91%
    23:00 +25°C° 0 mm 2 m/S 758 mmHg 92%

    3 März, Dienstag

    Zeit Temperatur Niederschläge Wind Luftdruck Luftfeuchtigkeit
    00:00 +25°C° 0 mm 1 m/S 758 mmHg 93%
    01:00 +25°C° 0 mm 1 m/S 757 mmHg 94%
    02:00 +25°C° 0 mm 1 m/S 757 mmHg 94%
    03:00 +25°C° 0 mm 1 m/S 756 mmHg 95%
    04:00 +25°C° 0 mm 1 m/S 756 mmHg 96%
    05:00 +24°C° 0 mm 1 m/S 756 mmHg 96%
    06:00 +24°C° 0 mm 1 m/S 757 mmHg 96%
    07:00 +26°C° 0 mm 1 m/S 757 mmHg 89%
    08:00 +26°C° 0 mm 0 m/S 757 mmHg 81%
    09:00 +27°C° 0 mm 0 m/S 758 mmHg 74%
    10:00 +31°C° 0 mm 1 m/S 757 mmHg 68%
    11:00 +32°C° 0 mm 2 m/S 757 mmHg 62%
    12:00 +34°C° 0 mm 3 m/S 756 mmHg 56%
    13:00 +34°C° 0 mm 3 m/S 755 mmHg 55%
    14:00 +35°C° 0 mm 3 m/S 754 mmHg 54%
    15:00 +35°C° 0 mm 4 m/S 753 mmHg 53%
    16:00 +33°C° 0 mm 4 m/S 754 mmHg 61%
    17:00 +30°C° 0 mm 4 m/S 754 mmHg 68%
    18:00 +29°C° 0 mm 4 m/S 754 mmHg 76%
    19:00 +28°C° 0 mm 3 m/S 755 mmHg 81%
    20:00 +27°C° 0 mm 3 m/S 755 mmHg 87%
    21:00 +26°C° 0 mm 2 m/S 756 mmHg 92%
    22:00 +26°C° 0 mm 2 m/S 756 mmHg 94%
    23:00 +25°C° 0 mm 2 m/S 756 mmHg 95%

    4 März, Mittwoch

    Zeit Temperatur Niederschläge Wind Luftdruck Luftfeuchtigkeit
    00:00 +25°C° 0 mm 1 m/S 756 mmHg 96%
    01:00 +25°C° 0 mm 1 m/S 756 mmHg 97%
    02:00 +25°C° 0 mm 1 m/S 756 mmHg 97%
    03:00 +25°C° 0 mm 1 m/S 756 mmHg 98%
    04:00 +25°C° 0 mm 1 m/S 756 mmHg 98%
    05:00 +25°C° 0 mm 1 m/S 757 mmHg 97%
    06:00 +25°C° 0 mm 1 m/S 757 mmHg 97%
    07:00 +27°C° 0 mm 1 m/S 758 mmHg 87%
    08:00 +29°C° 0 mm 1 m/S 758 mmHg 76%
    09:00 +31°C° 0 mm 1 m/S 759 mmHg 65%
    10:00 +32°C° 0 mm 1 m/S 759 mmHg 57%
    11:00 +34°C° 0 mm 1 m/S 758 mmHg 49%
    12:00 +37°C° 0 mm 2 m/S 758 mmHg 41%
    13:00 +38°C° 0 mm 2 m/S 758 mmHg 41%
    14:00 +38°C° 0 mm 2 m/S 757 mmHg 40%
    15:00 +38°C° 0 mm 2 m/S 757 mmHg 39%
    16:00 +35°C° 0 mm 1 m/S 758 mmHg 49%
    17:00 +33°C° 0 mm 1 m/S 758 mmHg 58%
    18:00 +31°C° 0 mm 1 m/S 759 mmHg 67%
    19:00 +29°C° 0.5 mm 2 m/S 761 mmHg 73%
    20:00 +28°C° 0.5 mm 3 m/S 762 mmHg 78%
    21:00 +26°C° 0.5 mm 4 m/S 763 mmHg 84%
    22:00 +25°C° 0.5 mm 4 m/S 764 mmHg 83%
    23:00 +23°C° 0.5 mm 5 m/S 764 mmHg 81%
    Mehr zeigen